Location: Caltech
(34.1382°N, 118.1253°W)
Time: 21:12:18
(UTC-07:00)

Cosmos 1408 Rocket - Visible Passes

Search period start: 15 April 2014 00:00
Search period end: 25 April 2014 00:00
Orbit: 604 x 632 km, 82.6° (Epoch: 14 April)

Date Brightness Start Highest point End Pass type
(mag) Time Alt. Az. Time Alt. Az. Time Alt. Az.
15 Apr 6.5 02:49:10 14° NNE 02:49:10 14° NNE 02:49:50 10° NNE visible
16 Apr 6.2 03:06:16 16° N 03:06:16 16° N 03:07:08 10° N visible
17 Apr 6.2 03:23:21 14° N 03:23:21 14° N 03:24:05 10° N visible
18 Apr 6.3 03:40:25 11° NNW 03:40:25 11° NNW 03:40:38 10° NNW visible
19 Apr 6.8 02:20:19 11° NNE 02:20:19 11° NNE 02:20:30 10° NNE visible
20 Apr 6.5 02:37:21 13° N 02:37:21 13° N 02:37:46 10° N visible
21 Apr 6.4 02:54:22 12° N 02:54:22 12° N 02:54:42 10° N visible
24 Apr 6.7 02:08:13 11° N 02:08:13 11° N 02:08:23 10° N visible
